Year,Month,Day,Hour,Minute,Value (Times are PST for temperature in C)
2017,05,29,00,00,13.80
2017,05,29,00,01,13.70
2017,05,29,00,02,13.70
2017,05,29,00,03,13.70
2017,05,29,00,04,13.70
2017,05,29,00,05,13.70
2017,05,29,00,06,13.70
2017,05,29,00,07,13.70
2017,05,29,00,08,13.70
2017,05,29,00,09,13.60
2017,05,29,00,10,13.60
2017,05,29,00,11,13.60
2017,05,29,00,12,13.60
2017,05,29,00,13,13.60
2017,05,29,00,14,13.60
2017,05,29,00,15,13.60
2017,05,29,00,16,13.60
2017,05,29,00,17,13.60
2017,05,29,00,18,13.60
2017,05,29,00,19,13.60
2017,05,29,00,20,13.60
2017,05,29,00,21,13.60
2017,05,29,00,22,13.60
2017,05,29,00,23,13.60
2017,05,29,00,24,13.60
2017,05,29,00,25,13.60
2017,05,29,00,26,13.50
2017,05,29,00,27,13.50
2017,05,29,00,28,13.50
2017,05,29,00,29,13.50
2017,05,29,00,30,13.50
2017,05,29,00,31,13.50
2017,05,29,00,32,13.50
2017,05,29,00,33,13.50
2017,05,29,00,34,13.50
2017,05,29,00,35,13.50
2017,05,29,00,36,13.50
2017,05,29,00,37,13.40
2017,05,29,00,38,13.40
2017,05,29,00,39,13.40
2017,05,29,00,40,13.40
2017,05,29,00,41,13.30
2017,05,29,00,42,13.30
2017,05,29,00,43,13.30
2017,05,29,00,44,13.30
2017,05,29,00,45,13.30
2017,05,29,00,46,13.30
2017,05,29,00,47,13.20
2017,05,29,00,48,13.20
2017,05,29,00,49,13.20
2017,05,29,00,50,13.20
2017,05,29,00,51,13.20
2017,05,29,00,52,13.20
2017,05,29,00,53,13.20
2017,05,29,00,54,13.20
2017,05,29,00,55,13.20
2017,05,29,00,56,13.20
2017,05,29,00,57,13.10
2017,05,29,00,58,13.10
2017,05,29,00,59,13.10
2017,05,29,01,00,13.10
2017,05,29,01,01,13.10
2017,05,29,01,02,13.10
2017,05,29,01,03,13.10
2017,05,29,01,04,13.10
2017,05,29,01,05,13.10
2017,05,29,01,06,13.10
2017,05,29,01,07,13.10
2017,05,29,01,08,13.10
2017,05,29,01,09,13.00
2017,05,29,01,10,13.00
2017,05,29,01,11,13.00
2017,05,29,01,12,13.00
2017,05,29,01,13,13.00
2017,05,29,01,14,13.00
2017,05,29,01,15,13.00
2017,05,29,01,16,13.00
2017,05,29,01,17,13.00
2017,05,29,01,18,13.00
2017,05,29,01,19,12.90
2017,05,29,01,20,12.90
2017,05,29,01,21,12.90
2017,05,29,01,22,12.90
2017,05,29,01,23,12.90
2017,05,29,01,24,12.90
2017,05,29,01,25,12.80
2017,05,29,01,26,12.80
2017,05,29,01,27,12.80
2017,05,29,01,28,12.80
2017,05,29,01,29,12.80
2017,05,29,01,30,12.80
2017,05,29,01,31,12.80
2017,05,29,01,32,12.80
2017,05,29,01,33,12.80
2017,05,29,01,34,12.70
2017,05,29,01,35,12.70
2017,05,29,01,36,12.60
2017,05,29,01,37,12.60
2017,05,29,01,38,12.50
2017,05,29,01,39,12.50
2017,05,29,01,40,12.50
2017,05,29,01,41,12.40
2017,05,29,01,42,12.40
2017,05,29,01,43,12.40
2017,05,29,01,44,12.30
2017,05,29,01,45,12.30
2017,05,29,01,46,12.30
2017,05,29,01,47,12.30
2017,05,29,01,48,12.30
2017,05,29,01,49,12.30
2017,05,29,01,50,12.30
2017,05,29,01,51,12.30
2017,05,29,01,52,12.30
2017,05,29,01,53,12.20
2017,05,29,01,54,12.20
2017,05,29,01,55,12.20
2017,05,29,01,56,12.20
2017,05,29,01,57,12.20
2017,05,29,01,58,12.20
2017,05,29,01,59,12.20
2017,05,29,02,00,12.20
2017,05,29,02,01,12.20
2017,05,29,02,02,12.20
2017,05,29,02,03,12.20
2017,05,29,02,04,12.20
2017,05,29,02,05,12.20
2017,05,29,02,06,12.10
2017,05,29,02,07,12.10
2017,05,29,02,08,12.10
2017,05,29,02,09,12.10
2017,05,29,02,10,12.10
2017,05,29,02,11,12.00
2017,05,29,02,12,12.00
2017,05,29,02,13,12.00
2017,05,29,02,14,12.00
2017,05,29,02,15,12.00
2017,05,29,02,16,12.00
2017,05,29,02,17,12.00
2017,05,29,02,18,12.00
2017,05,29,02,19,11.90
2017,05,29,02,20,11.90
2017,05,29,02,21,11.90
2017,05,29,02,22,11.90
2017,05,29,02,23,12.00
2017,05,29,02,24,12.00
2017,05,29,02,25,12.00
2017,05,29,02,26,12.00
2017,05,29,02,27,11.90
2017,05,29,02,28,11.90
2017,05,29,02,29,11.90
2017,05,29,02,30,11.90
2017,05,29,02,31,11.90
2017,05,29,02,32,11.90
2017,05,29,02,33,11.90
2017,05,29,02,34,11.90
2017,05,29,02,35,11.90
2017,05,29,02,36,11.90
2017,05,29,02,37,11.80
2017,05,29,02,38,11.80
2017,05,29,02,39,11.80
2017,05,29,02,40,11.80
2017,05,29,02,41,11.80
2017,05,29,02,42,11.80
2017,05,29,02,43,11.80
2017,05,29,02,44,11.80
2017,05,29,02,45,11.80
2017,05,29,02,46,11.80
2017,05,29,02,47,11.80
2017,05,29,02,48,11.80
2017,05,29,02,49,11.80
2017,05,29,02,50,11.70
2017,05,29,02,51,11.70
2017,05,29,02,52,11.70
2017,05,29,02,53,11.70
2017,05,29,02,54,11.60
2017,05,29,02,55,11.60
2017,05,29,02,56,11.60
2017,05,29,02,57,11.60
2017,05,29,02,58,11.60
2017,05,29,02,59,11.60
2017,05,29,03,00,11.60
2017,05,29,03,01,11.60
2017,05,29,03,02,11.60
2017,05,29,03,03,11.60
2017,05,29,03,04,11.60
2017,05,29,03,05,11.60
2017,05,29,03,06,11.50
2017,05,29,03,07,11.40
2017,05,29,03,08,11.40
2017,05,29,03,09,11.40
2017,05,29,03,10,11.40
2017,05,29,03,11,11.40
2017,05,29,03,12,11.40
2017,05,29,03,13,11.40
2017,05,29,03,14,11.40
2017,05,29,03,15,11.40
2017,05,29,03,16,11.40
2017,05,29,03,17,11.40
2017,05,29,03,18,11.40
2017,05,29,03,19,11.40
2017,05,29,03,20,11.40
2017,05,29,03,21,11.40
2017,05,29,03,22,11.30
2017,05,29,03,23,11.30
2017,05,29,03,24,11.30
2017,05,29,03,25,11.30
2017,05,29,03,26,11.30
2017,05,29,03,27,11.20
2017,05,29,03,28,11.20
2017,05,29,03,29,11.20
2017,05,29,03,30,11.20
2017,05,29,03,31,11.10
2017,05,29,03,32,11.10
2017,05,29,03,33,11.10
2017,05,29,03,34,11.10
2017,05,29,03,35,11.10
2017,05,29,03,36,11.10
2017,05,29,03,37,11.10
2017,05,29,03,38,11.10
2017,05,29,03,39,11.10
2017,05,29,03,40,11.10
2017,05,29,03,41,10.90
2017,05,29,03,42,10.90
2017,05,29,03,43,10.90
2017,05,29,03,44,10.90
2017,05,29,03,45,10.90
2017,05,29,03,46,10.90
2017,05,29,03,47,10.90
2017,05,29,03,48,10.90
2017,05,29,03,49,10.90
2017,05,29,03,50,10.90
2017,05,29,03,51,10.80
2017,05,29,03,52,10.80
2017,05,29,03,53,10.70
2017,05,29,03,54,10.70
2017,05,29,03,55,10.60
2017,05,29,03,56,10.60
2017,05,29,03,57,10.60
2017,05,29,03,58,10.60
2017,05,29,03,59,10.60
2017,05,29,04,00,10.60
2017,05,29,04,01,10.60
2017,05,29,04,02,10.50
2017,05,29,04,03,10.40
2017,05,29,04,04,10.40
2017,05,29,04,05,10.40
2017,05,29,04,06,10.40
2017,05,29,04,07,10.40
2017,05,29,04,08,10.40
2017,05,29,04,09,10.50
2017,05,29,04,10,10.60
2017,05,29,04,11,10.60
2017,05,29,04,12,10.60
2017,05,29,04,13,10.60
2017,05,29,04,14,10.60
2017,05,29,04,15,10.60
2017,05,29,04,16,10.60
2017,05,29,04,17,10.60
2017,05,29,04,18,10.60
2017,05,29,04,19,10.70
2017,05,29,04,20,10.70
2017,05,29,04,21,10.70
2017,05,29,04,22,10.70
2017,05,29,04,23,10.70
2017,05,29,04,24,10.70
2017,05,29,04,25,10.70
2017,05,29,04,26,10.70
2017,05,29,04,27,10.70
2017,05,29,04,28,10.70
2017,05,29,04,29,10.70
2017,05,29,04,30,10.70
2017,05,29,04,31,10.70
2017,05,29,04,32,10.80
2017,05,29,04,33,10.70
2017,05,29,04,34,10.70
2017,05,29,04,35,10.70
2017,05,29,04,36,10.70
2017,05,29,04,37,10.70
2017,05,29,04,38,10.70
2017,05,29,04,39,10.70
2017,05,29,04,40,10.70
2017,05,29,04,41,10.70
2017,05,29,04,42,10.60
2017,05,29,04,43,10.60
2017,05,29,04,44,10.60
2017,05,29,04,45,10.60
2017,05,29,04,46,10.60
2017,05,29,04,47,10.60
2017,05,29,04,48,10.60
2017,05,29,04,49,10.60
2017,05,29,04,50,10.60
2017,05,29,04,51,10.50
2017,05,29,04,52,10.40
2017,05,29,04,53,10.40
2017,05,29,04,54,10.40
2017,05,29,04,55,10.40
2017,05,29,04,56,10.40
2017,05,29,04,57,10.40
2017,05,29,04,58,10.40
2017,05,29,04,59,10.40
2017,05,29,05,00,10.40
2017,05,29,05,01,10.40
2017,05,29,05,02,10.40
2017,05,29,05,03,10.40
2017,05,29,05,04,10.40
2017,05,29,05,05,10.40
2017,05,29,05,06,10.40
2017,05,29,05,07,10.40
2017,05,29,05,08,10.30
2017,05,29,05,09,10.30
2017,05,29,05,10,10.30
2017,05,29,05,11,10.30
2017,05,29,05,12,10.20
2017,05,29,05,13,10.20
2017,05,29,05,14,10.20
2017,05,29,05,15,10.20
2017,05,29,05,16,10.20
2017,05,29,05,17,10.10
2017,05,29,05,18,10.10
2017,05,29,05,19,10.10
2017,05,29,05,20,10.10
2017,05,29,05,21,10.10
2017,05,29,05,22,10.10
2017,05,29,05,23,10.10
2017,05,29,05,24,10.10
2017,05,29,05,25,10.10
2017,05,29,05,26,9.90
2017,05,29,05,27,9.90
2017,05,29,05,28,9.90
2017,05,29,05,29,9.90
2017,05,29,05,30,9.90
2017,05,29,05,31,9.90
2017,05,29,05,32,9.90
2017,05,29,05,33,9.90
2017,05,29,05,34,9.90
2017,05,29,05,35,9.90
2017,05,29,05,36,9.90
2017,05,29,05,37,9.90
2017,05,29,05,38,9.90
2017,05,29,05,39,9.90
2017,05,29,05,40,9.90
2017,05,29,05,41,9.90
2017,05,29,05,42,9.90
2017,05,29,05,43,9.90
2017,05,29,05,44,9.90
2017,05,29,05,45,9.90
2017,05,29,05,46,9.90
2017,05,29,05,47,9.90
2017,05,29,05,48,9.90
2017,05,29,05,49,10.00
2017,05,29,05,50,10.10
2017,05,29,05,51,10.10
2017,05,29,05,52,10.10
2017,05,29,05,53,10.10
2017,05,29,05,54,10.10
2017,05,29,05,55,10.10
2017,05,29,05,56,10.10
2017,05,29,05,57,10.10
2017,05,29,05,58,10.10
2017,05,29,05,59,10.10
2017,05,29,06,00,10.10
2017,05,29,06,01,10.10
2017,05,29,06,02,10.10
2017,05,29,06,03,10.10
2017,05,29,06,04,10.10
2017,05,29,06,05,10.10
2017,05,29,06,06,10.10
2017,05,29,06,07,10.10
2017,05,29,06,08,10.20
2017,05,29,06,09,10.20
2017,05,29,06,10,10.20
2017,05,29,06,11,10.20
2017,05,29,06,12,10.20
2017,05,29,06,13,10.30
2017,05,29,06,14,10.30
2017,05,29,06,15,10.30
2017,05,29,06,16,10.30
2017,05,29,06,17,10.30
2017,05,29,06,18,10.30
2017,05,29,06,19,10.30
2017,05,29,06,20,10.30
2017,05,29,06,21,10.40
2017,05,29,06,22,10.40
2017,05,29,06,23,10.40
2017,05,29,06,24,10.40
2017,05,29,06,25,10.40
2017,05,29,06,26,10.40
2017,05,29,06,27,10.50
2017,05,29,06,28,10.60
2017,05,29,06,29,10.60
2017,05,29,06,30,10.60
2017,05,29,06,31,10.60
2017,05,29,06,32,10.60
2017,05,29,06,33,10.70
2017,05,29,06,34,10.70
2017,05,29,06,35,10.70
2017,05,29,06,36,10.80
2017,05,29,06,37,10.80
2017,05,29,06,38,10.90
2017,05,29,06,39,10.90
2017,05,29,06,40,10.90
2017,05,29,06,41,10.90
2017,05,29,06,42,10.90
2017,05,29,06,43,11.10
2017,05,29,06,44,11.10
2017,05,29,06,45,11.10
2017,05,29,06,46,11.20
2017,05,29,06,47,11.20
2017,05,29,06,48,11.30
2017,05,29,06,49,11.40
2017,05,29,06,50,11.40
2017,05,29,06,51,11.50
2017,05,29,06,52,11.60
2017,05,29,06,53,11.70
2017,05,29,06,54,11.80
2017,05,29,06,55,11.90
2017,05,29,06,56,12.00
2017,05,29,06,57,12.00
2017,05,29,06,58,12.10
2017,05,29,06,59,12.20
2017,05,29,07,00,12.30
2017,05,29,07,01,12.40
2017,05,29,07,02,12.50
2017,05,29,07,03,12.60
2017,05,29,07,04,12.70
2017,05,29,07,05,12.80
2017,05,29,07,06,12.80
2017,05,29,07,07,12.80
2017,05,29,07,08,12.80
2017,05,29,07,09,12.80
2017,05,29,07,10,12.80
2017,05,29,07,11,12.80
2017,05,29,07,12,12.90
2017,05,29,07,13,12.90
2017,05,29,07,14,12.90
2017,05,29,07,15,13.00
2017,05,29,07,16,13.10
2017,05,29,07,17,13.10
2017,05,29,07,18,13.20
2017,05,29,07,19,13.20
2017,05,29,07,20,13.30
2017,05,29,07,21,13.30
2017,05,29,07,22,13.50
2017,05,29,07,23,13.60
2017,05,29,07,24,13.70
2017,05,29,07,25,13.80
2017,05,29,07,26,13.90
2017,05,29,07,27,14.00
2017,05,29,07,28,14.10
2017,05,29,07,29,14.20
2017,05,29,07,30,14.20
2017,05,29,07,31,14.30
2017,05,29,07,32,14.30
2017,05,29,07,33,14.30
2017,05,29,07,34,14.30
2017,05,29,07,35,14.20
2017,05,29,07,36,14.20
2017,05,29,07,37,14.30
2017,05,29,07,38,14.30
2017,05,29,07,39,14.30
2017,05,29,07,40,14.30
2017,05,29,07,41,14.30
2017,05,29,07,42,14.30
2017,05,29,07,43,14.40
2017,05,29,07,44,14.40
2017,05,29,07,45,14.40
2017,05,29,07,46,14.50
2017,05,29,07,47,14.50
2017,05,29,07,48,14.50
2017,05,29,07,49,14.60
2017,05,29,07,50,14.60
2017,05,29,07,51,14.70
2017,05,29,07,52,14.80
2017,05,29,07,53,15.00
2017,05,29,07,54,15.10
2017,05,29,07,55,15.20
2017,05,29,07,56,15.20
2017,05,29,07,57,15.30
2017,05,29,07,58,15.30
2017,05,29,07,59,15.30
2017,05,29,08,00,15.30
2017,05,29,08,01,15.30
2017,05,29,08,02,15.30
2017,05,29,08,03,15.30
2017,05,29,08,04,15.40
2017,05,29,08,05,15.50
2017,05,29,08,06,15.60
2017,05,29,08,07,15.70
2017,05,29,08,08,15.80
2017,05,29,08,09,15.90
2017,05,29,08,10,16.00
2017,05,29,08,11,16.10
2017,05,29,08,12,16.20
2017,05,29,08,13,16.30
2017,05,29,08,14,16.40
2017,05,29,08,15,16.40
2017,05,29,08,16,16.50
2017,05,29,08,17,16.60
2017,05,29,08,18,16.50
2017,05,29,08,19,16.40
2017,05,29,08,20,16.40
2017,05,29,08,21,16.40
2017,05,29,08,22,16.30
2017,05,29,08,23,16.30
2017,05,29,08,24,16.20
2017,05,29,08,25,16.10
2017,05,29,08,26,16.10
2017,05,29,08,27,16.20
2017,05,29,08,28,16.30
2017,05,29,08,29,16.40
2017,05,29,08,30,16.50
2017,05,29,08,31,16.60
2017,05,29,08,32,16.70
2017,05,29,08,33,16.80
2017,05,29,08,34,16.90
2017,05,29,08,35,17.00
2017,05,29,08,36,17.00
2017,05,29,08,37,17.00
2017,05,29,08,38,17.10
2017,05,29,08,39,17.00
2017,05,29,08,40,16.90
2017,05,29,08,41,16.90
2017,05,29,08,42,16.80
2017,05,29,08,43,16.70
2017,05,29,08,44,16.70
2017,05,29,08,45,16.70
2017,05,29,08,46,16.80
2017,05,29,08,47,16.90
2017,05,29,08,48,16.90
2017,05,29,08,49,16.90
2017,05,29,08,50,17.00
2017,05,29,08,51,17.00
2017,05,29,08,52,17.10
2017,05,29,08,53,17.10
2017,05,29,08,54,17.20
2017,05,29,08,55,17.30
2017,05,29,08,56,17.30
2017,05,29,08,57,17.40
2017,05,29,08,58,17.50
2017,05,29,08,59,17.50
2017,05,29,09,00,17.60
2017,05,29,09,01,17.60
2017,05,29,09,02,17.60
2017,05,29,09,03,17.60
2017,05,29,09,04,17.60
2017,05,29,09,05,17.50
2017,05,29,09,06,17.40
2017,05,29,09,07,17.40
2017,05,29,09,08,17.50
2017,05,29,09,09,17.50
2017,05,29,09,10,17.60
2017,05,29,09,11,17.50
2017,05,29,09,12,17.30
2017,05,29,09,13,17.20
2017,05,29,09,14,17.10
2017,05,29,09,15,17.00
2017,05,29,09,16,16.90
2017,05,29,09,17,16.90
2017,05,29,09,18,16.80
2017,05,29,09,19,16.70
2017,05,29,09,20,16.70
2017,05,29,09,21,16.70
2017,05,29,09,22,16.50
2017,05,29,09,23,16.40
2017,05,29,09,24,16.40
2017,05,29,09,25,16.40
2017,05,29,09,26,16.40
2017,05,29,09,27,16.30
2017,05,29,09,28,16.30
2017,05,29,09,29,16.40
2017,05,29,09,30,16.40
2017,05,29,09,31,16.40
2017,05,29,09,32,16.40
2017,05,29,09,33,16.40
2017,05,29,09,34,16.40
2017,05,29,09,35,16.50
2017,05,29,09,36,16.60
2017,05,29,09,37,16.70
2017,05,29,09,38,16.80
2017,05,29,09,39,16.90
2017,05,29,09,40,17.00
2017,05,29,09,41,17.00
2017,05,29,09,42,17.00
2017,05,29,09,43,17.10
2017,05,29,09,44,17.10
2017,05,29,09,45,17.10
2017,05,29,09,46,17.20
2017,05,29,09,47,17.20
2017,05,29,09,48,17.20
2017,05,29,09,49,17.20
2017,05,29,09,50,17.20
2017,05,29,09,51,17.20
2017,05,29,09,52,17.10
2017,05,29,09,53,17.10
2017,05,29,09,54,17.10
2017,05,29,09,55,17.10
2017,05,29,09,56,17.20
2017,05,29,09,57,17.30
2017,05,29,09,58,17.30
2017,05,29,09,59,17.40
2017,05,29,10,00,17.50
2017,05,29,10,01,17.60
2017,05,29,10,02,17.70
2017,05,29,10,03,17.80
2017,05,29,10,04,17.70
2017,05,29,10,05,17.60
2017,05,29,10,06,17.60
2017,05,29,10,07,17.60
2017,05,29,10,08,17.60
2017,05,29,10,09,17.60
2017,05,29,10,10,17.70
2017,05,29,10,11,17.70
2017,05,29,10,12,17.80
2017,05,29,10,13,17.80
2017,05,29,10,14,17.90
2017,05,29,10,15,17.90
2017,05,29,10,16,17.90
2017,05,29,10,17,17.90
2017,05,29,10,18,17.90
2017,05,29,10,19,17.90
2017,05,29,10,20,18.00
2017,05,29,10,21,18.10
2017,05,29,10,22,18.10
2017,05,29,10,23,18.20
2017,05,29,10,24,18.30
2017,05,29,10,25,18.30
2017,05,29,10,26,18.30
2017,05,29,10,27,18.50
2017,05,29,10,28,18.50
2017,05,29,10,29,18.60
2017,05,29,10,30,18.70
2017,05,29,10,31,18.70
2017,05,29,10,32,18.80
2017,05,29,10,33,18.80
2017,05,29,10,34,18.90
2017,05,29,10,35,18.80
2017,05,29,10,36,18.80
2017,05,29,10,37,18.90
2017,05,29,10,38,18.90
2017,05,29,10,39,18.90
2017,05,29,10,40,18.90
2017,05,29,10,41,19.00
2017,05,29,10,42,19.10
2017,05,29,10,43,19.20
2017,05,29,10,44,19.30
2017,05,29,10,45,19.30
2017,05,29,10,46,19.30
2017,05,29,10,47,19.30
2017,05,29,10,48,19.30
2017,05,29,10,49,19.20
2017,05,29,10,50,19.10
2017,05,29,10,51,19.20
2017,05,29,10,52,19.30
2017,05,29,10,53,19.50
2017,05,29,10,54,19.60
2017,05,29,10,55,19.60
2017,05,29,10,56,19.60
2017,05,29,10,57,19.70
2017,05,29,10,58,19.80
2017,05,29,10,59,19.90
2017,05,29,11,00,19.80
2017,05,29,11,01,19.70
2017,05,29,11,02,19.70
2017,05,29,11,03,19.60
2017,05,29,11,04,19.60
2017,05,29,11,05,19.40
2017,05,29,11,06,19.30
2017,05,29,11,07,19.00
2017,05,29,11,08,18.70
2017,05,29,11,09,18.60
2017,05,29,11,10,18.60
2017,05,29,11,11,18.50
2017,05,29,11,12,18.40
2017,05,29,11,13,18.30
2017,05,29,11,14,18.10
2017,05,29,11,15,18.00
2017,05,29,11,16,17.80
2017,05,29,11,17,17.70
2017,05,29,11,18,17.60
2017,05,29,11,19,17.50
2017,05,29,11,20,17.30
2017,05,29,11,21,17.10
2017,05,29,11,22,17.10
2017,05,29,11,23,17.10
2017,05,29,11,24,17.00
2017,05,29,11,25,17.00
2017,05,29,11,26,17.10
2017,05,29,11,27,17.10
2017,05,29,11,28,17.20
2017,05,29,11,29,17.30
2017,05,29,11,30,17.30
2017,05,29,11,31,17.30
2017,05,29,11,32,17.30
2017,05,29,11,33,17.30
2017,05,29,11,34,17.20
2017,05,29,11,35,17.30
2017,05,29,11,36,17.30
2017,05,29,11,37,17.30
2017,05,29,11,38,17.30
2017,05,29,11,39,17.30
2017,05,29,11,40,17.40
2017,05,29,11,41,17.50
2017,05,29,11,42,17.60
2017,05,29,11,43,17.70
2017,05,29,11,44,17.80
2017,05,29,11,45,17.80
2017,05,29,11,46,17.80
2017,05,29,11,47,17.80
2017,05,29,11,48,17.80
2017,05,29,11,49,17.80
2017,05,29,11,50,17.80
2017,05,29,11,51,17.70
2017,05,29,11,52,17.80
2017,05,29,11,53,17.90
2017,05,29,11,54,18.00
2017,05,29,11,55,18.10
2017,05,29,11,56,18.20
2017,05,29,11,57,18.30
2017,05,29,11,58,18.40
2017,05,29,11,59,18.40
2017,05,29,12,00,18.40
2017,05,29,12,01,18.40
2017,05,29,12,02,18.40
2017,05,29,12,03,18.40
2017,05,29,12,04,18.30
2017,05,29,12,05,18.30
2017,05,29,12,06,18.30
2017,05,29,12,07,18.20
2017,05,29,12,08,18.20
2017,05,29,12,09,18.20
2017,05,29,12,10,18.10
2017,05,29,12,11,18.00
2017,05,29,12,12,17.90
2017,05,29,12,13,17.90
2017,05,29,12,14,17.90
2017,05,29,12,15,17.90
2017,05,29,12,16,18.10
2017,05,29,12,17,18.00
2017,05,29,12,18,18.10
2017,05,29,12,19,18.10
2017,05,29,12,20,18.10
2017,05,29,12,21,18.20
2017,05,29,12,22,18.30
2017,05,29,12,23,18.30
2017,05,29,12,24,18.40
2017,05,29,12,25,18.40
2017,05,29,12,26,18.50
2017,05,29,12,27,18.50
2017,05,29,12,28,18.60
2017,05,29,12,29,18.50
2017,05,29,12,30,18.50
2017,05,29,12,31,18.60
2017,05,29,12,32,18.60
2017,05,29,12,33,18.70
2017,05,29,12,34,18.70
2017,05,29,12,35,18.70
2017,05,29,12,36,18.70
2017,05,29,12,37,18.80
2017,05,29,12,38,18.90
2017,05,29,12,39,18.90
2017,05,29,12,40,18.90
2017,05,29,12,41,19.00
2017,05,29,12,42,19.10
2017,05,29,12,43,19.30
2017,05,29,12,44,19.40
2017,05,29,12,45,19.40
2017,05,29,12,46,19.50
2017,05,29,12,47,19.40
2017,05,29,12,48,19.30
2017,05,29,12,49,19.30
2017,05,29,12,50,19.30
2017,05,29,12,51,19.30
2017,05,29,12,52,19.30
2017,05,29,12,53,19.30
2017,05,29,12,54,19.20
2017,05,29,12,55,19.10
2017,05,29,12,56,19.00
2017,05,29,12,57,18.90
2017,05,29,12,58,18.90
2017,05,29,12,59,18.80
2017,05,29,13,00,18.80
2017,05,29,13,01,18.70
2017,05,29,13,02,18.80
2017,05,29,13,03,18.80
2017,05,29,13,04,18.70
2017,05,29,13,05,18.60
2017,05,29,13,06,18.50
2017,05,29,13,07,18.50
2017,05,29,13,08,18.60
2017,05,29,13,09,18.60
2017,05,29,13,10,18.60
2017,05,29,13,11,18.60
2017,05,29,13,12,18.70
2017,05,29,13,13,18.60
2017,05,29,13,14,18.60
2017,05,29,13,15,18.60
2017,05,29,13,16,18.60
2017,05,29,13,17,18.70
2017,05,29,13,18,18.80
2017,05,29,13,19,18.70
2017,05,29,13,20,18.70
2017,05,29,13,21,18.70
2017,05,29,13,22,18.70
2017,05,29,13,23,18.80
2017,05,29,13,24,18.90
2017,05,29,13,25,18.90
2017,05,29,13,26,18.90
2017,05,29,13,27,18.90
2017,05,29,13,28,18.80
2017,05,29,13,29,18.80
2017,05,29,13,30,18.80
2017,05,29,13,31,18.70
2017,05,29,13,32,18.70
2017,05,29,13,33,18.70
2017,05,29,13,34,18.80
2017,05,29,13,35,18.80
2017,05,29,13,36,18.80
2017,05,29,13,37,18.60
2017,05,29,13,38,18.50
2017,05,29,13,39,18.50
2017,05,29,13,40,18.60
2017,05,29,13,41,18.60
2017,05,29,13,42,18.70
2017,05,29,13,43,18.60
2017,05,29,13,44,18.60
2017,05,29,13,45,18.60
2017,05,29,13,46,18.70
2017,05,29,13,47,18.80
2017,05,29,13,48,18.90
2017,05,29,13,49,18.90
2017,05,29,13,50,18.90
2017,05,29,13,51,18.90
2017,05,29,13,52,18.90
2017,05,29,13,53,18.90
2017,05,29,13,54,18.90
2017,05,29,13,55,18.70
2017,05,29,13,56,18.60
2017,05,29,13,57,18.60
2017,05,29,13,58,18.50
2017,05,29,13,59,18.50
2017,05,29,14,00,18.50
2017,05,29,14,01,18.60
2017,05,29,14,02,18.60
2017,05,29,14,03,18.60
2017,05,29,14,04,18.60
2017,05,29,14,05,18.50
2017,05,29,14,06,18.60
2017,05,29,14,07,18.70
2017,05,29,14,08,18.70
2017,05,29,14,09,18.70
2017,05,29,14,10,18.70
2017,05,29,14,11,18.70
2017,05,29,14,12,18.80
2017,05,29,14,13,18.80
2017,05,29,14,14,18.90
2017,05,29,14,15,18.90
2017,05,29,14,16,19.00
2017,05,29,14,17,19.10
2017,05,29,14,18,19.10
2017,05,29,14,19,19.10
2017,05,29,14,20,19.10
2017,05,29,14,21,19.10
2017,05,29,14,22,19.10
2017,05,29,14,23,19.10
2017,05,29,14,24,19.10
2017,05,29,14,25,19.10
2017,05,29,14,26,19.10
2017,05,29,14,27,19.10
2017,05,29,14,28,19.00
2017,05,29,14,29,18.90
2017,05,29,14,30,19.00
2017,05,29,14,31,19.10
2017,05,29,14,32,19.10
2017,05,29,14,33,19.20
2017,05,29,14,34,19.20
2017,05,29,14,35,19.30
2017,05,29,14,36,19.40
2017,05,29,14,37,19.50
2017,05,29,14,38,19.50
2017,05,29,14,39,19.60
2017,05,29,14,40,19.60
2017,05,29,14,41,19.80
2017,05,29,14,42,19.90
2017,05,29,14,43,19.90
2017,05,29,14,44,19.90
2017,05,29,14,45,20.00
2017,05,29,14,46,20.20
2017,05,29,14,47,20.20
2017,05,29,14,48,20.10
2017,05,29,14,49,19.90
2017,05,29,14,50,19.90
2017,05,29,14,51,20.00
2017,05,29,14,52,20.10
2017,05,29,14,53,20.10
2017,05,29,14,54,20.30
2017,05,29,14,55,20.40
2017,05,29,14,56,20.50
2017,05,29,14,57,20.50
2017,05,29,14,58,20.50
2017,05,29,14,59,20.50
2017,05,29,15,00,20.50
2017,05,29,15,01,20.40
2017,05,29,15,02,20.50
2017,05,29,15,03,20.60
2017,05,29,15,04,20.80
2017,05,29,15,05,20.90
2017,05,29,15,06,21.10
2017,05,29,15,07,21.20
2017,05,29,15,08,21.30
2017,05,29,15,09,21.30
2017,05,29,15,10,21.20
2017,05,29,15,11,21.20
2017,05,29,15,12,21.30
2017,05,29,15,13,21.30
2017,05,29,15,14,21.30
2017,05,29,15,15,21.30
2017,05,29,15,16,21.50
2017,05,29,15,17,21.60
2017,05,29,15,18,21.60
2017,05,29,15,19,21.60
2017,05,29,15,20,21.40
2017,05,29,15,21,21.30
2017,05,29,15,22,21.30
2017,05,29,15,23,21.30
2017,05,29,15,24,21.20
2017,05,29,15,25,21.20
2017,05,29,15,26,21.10
2017,05,29,15,27,21.10
2017,05,29,15,28,21.10
2017,05,29,15,29,21.20
2017,05,29,15,30,21.40
2017,05,29,15,31,21.50
2017,05,29,15,32,21.60
2017,05,29,15,33,21.60
2017,05,29,15,34,21.70
2017,05,29,15,35,21.80
2017,05,29,15,36,21.80
2017,05,29,15,37,21.80
2017,05,29,15,38,21.90
2017,05,29,15,39,22.00
2017,05,29,15,40,22.00
2017,05,29,15,41,22.10
2017,05,29,15,42,22.00
2017,05,29,15,43,22.00
2017,05,29,15,44,22.00
2017,05,29,15,45,22.00
2017,05,29,15,46,22.10
2017,05,29,15,47,22.00
2017,05,29,15,48,22.00
2017,05,29,15,49,22.10
2017,05,29,15,50,22.00
2017,05,29,15,51,22.00
2017,05,29,15,52,22.20
2017,05,29,15,53,22.10
2017,05,29,15,54,22.10
2017,05,29,15,55,22.10
2017,05,29,15,56,22.00
2017,05,29,15,57,22.00
2017,05,29,15,58,22.00
2017,05,29,15,59,22.00
2017,05,29,16,00,21.90
2017,05,29,16,01,21.90
2017,05,29,16,02,21.90
2017,05,29,16,03,21.90
2017,05,29,16,04,22.00
2017,05,29,16,05,22.10
2017,05,29,16,06,22.10
2017,05,29,16,07,22.10
2017,05,29,16,08,22.20
2017,05,29,16,09,22.20
2017,05,29,16,10,22.30
2017,05,29,16,11,22.30
2017,05,29,16,12,22.40
2017,05,29,16,13,22.30
2017,05,29,16,14,22.40
2017,05,29,16,15,22.40
2017,05,29,16,16,22.40
2017,05,29,16,17,22.50
2017,05,29,16,18,22.50
2017,05,29,16,19,22.50
2017,05,29,16,20,22.60
2017,05,29,16,21,22.70
2017,05,29,16,22,22.70
2017,05,29,16,23,22.70
2017,05,29,16,24,22.60
2017,05,29,16,25,22.40
2017,05,29,16,26,22.30
2017,05,29,16,27,22.10
2017,05,29,16,28,22.20
2017,05,29,16,29,22.30
2017,05,29,16,30,22.40
2017,05,29,16,31,22.60
2017,05,29,16,32,22.60
2017,05,29,16,33,22.60
2017,05,29,16,34,22.60
2017,05,29,16,35,22.50
2017,05,29,16,36,22.60
2017,05,29,16,37,22.70
2017,05,29,16,38,22.60
2017,05,29,16,39,22.60
2017,05,29,16,40,22.50
2017,05,29,16,41,22.50
2017,05,29,16,42,22.50
2017,05,29,16,43,22.40
2017,05,29,16,44,22.40
2017,05,29,16,45,22.50
2017,05,29,16,46,22.60
2017,05,29,16,47,22.80
2017,05,29,16,48,23.00
2017,05,29,16,49,23.20
2017,05,29,16,50,23.30
2017,05,29,16,51,23.40
2017,05,29,16,52,23.40
2017,05,29,16,53,23.40
2017,05,29,16,54,23.30
2017,05,29,16,55,23.30
2017,05,29,16,56,23.30
2017,05,29,16,57,23.30
2017,05,29,16,58,23.30
2017,05,29,16,59,23.30
2017,05,29,17,00,23.30
2017,05,29,17,01,23.30
2017,05,29,17,02,23.30
2017,05,29,17,03,23.30
2017,05,29,17,04,23.20
2017,05,29,17,05,23.10
2017,05,29,17,06,23.10
2017,05,29,17,07,23.10
2017,05,29,17,08,23.00
2017,05,29,17,09,22.90
2017,05,29,17,10,22.90
2017,05,29,17,11,22.90
2017,05,29,17,12,22.70
2017,05,29,17,13,22.70
2017,05,29,17,14,22.70
2017,05,29,17,15,22.70
2017,05,29,17,16,22.60
2017,05,29,17,17,22.50
2017,05,29,17,18,22.50
2017,05,29,17,19,22.60
2017,05,29,17,20,22.70